Mobile Downtown, AL

9:14 AM CDT on July 28, 2017 (GMT -0500)
Mobile Downtown

Weather History for KBFM - March, 2014

Change the Weather History Date:

Saturday, March 15, 2014

  Actual Average Record
Temperature  
Mean Temperature 60 °F -  
Max Temperature 64 °F 66 °F 82 °F (2012)
Min Temperature 55 °F 49 °F 37 °F (2017)
Degree Days  
Heating Degree Days 6    
Growing Degree Days 10 (Base 50)    
Moisture  
Dew Point 58 °F    
Average Humidity 91    
Maximum Humidity 96    
Minimum Humidity 78    
Precipitation  
Precipitation 0.26 in - - ()
Sea Level Pressure  
Sea Level Pressure 30.05 in    
Wind  
Wind Speed 5 mph (East)    
Max Wind Speed 17 mph    
Max Gust Speed 23 mph    
Visibility 9 miles    
Events Rain    
Averages and records for this station are not official NWS values.
T = Trace of Precipitation, MM = Missing Value Source: NWS Daily Summary

Daily Weather History Graph

Daily Weather History Graph

Search for Another Location

Airport or City:

Trip Planner

Search our weather history database for the weather conditions in past years. The results will help you decide how hot, cold, wet, or windy it might be!

Date:

Astronomy

Mar. 15, 2014 Rise Set
Actual Time 7:02 AM CDT 7:00 PM CDT
Civil Twilight 6:38 AM CDT 7:24 PM CDT
Nautical Twilight 6:10 AM CDT 7:52 PM CDT
Astronomical Twilight 5:42 AM CDT 8:20 PM CDT
Moon 6:20 PM CDT (3/15) 6:11 AM CDT (3/15)
Length of Visible Light 12h 46m
Length of Day
11h 58m
Waxing Gibbous, 99% of the Moon is Illuminated
Mar 15
Waxing Gibbous
Mar 16
Full
Mar 23
Last Quarter
Mar 30
New
Apr 7
First Quarter

Hourly Weather History & Observations

Time (CDT) Temp. Dew Point Humidity Pressure Visibility Wind Dir Wind Speed Gust Speed Precip Events Conditions
12:07 AM 55.9 °F 53.1 °F 90% 30.15 in 10.0 mi ESE 3.5 mph - N/A   Mostly Cloudy
12:23 AM 57.0 °F 53.1 °F 87% 30.15 in 10.0 mi ESE 3.5 mph - N/A   Overcast
12:53 AM 55.9 °F 54.0 °F 93% 30.14 in 10.0 mi ESE 3.5 mph - N/A   Overcast
1:53 AM 55.0 °F 53.1 °F 93% 30.13 in 10.0 mi East 3.5 mph - N/A   Overcast
2:53 AM 55.0 °F 53.1 °F 93% 30.12 in 10.0 mi Calm Calm - N/A   Mostly Cloudy
3:53 AM 55.0 °F 53.1 °F 93% 30.10 in 10.0 mi NE 3.5 mph - N/A   Scattered Clouds
4:53 AM 57.0 °F 54.0 °F 89% 30.09 in 10.0 mi NE 3.5 mph - N/A   Overcast
5:53 AM 57.0 °F 55.0 °F 93% 30.10 in 10.0 mi North 4.6 mph - N/A   Overcast
6:53 AM 57.0 °F 55.0 °F 93% 30.11 in 10.0 mi Calm Calm - 0.00 in Rain Light Rain
7:53 AM 57.0 °F 55.0 °F 93% 30.11 in 10.0 mi ENE 5.8 mph - 0.00 in   Overcast
8:53 AM 59.0 °F 55.9 °F 90% 30.12 in 10.0 mi East 6.9 mph - N/A   Mostly Cloudy
9:53 AM 62.1 °F 57.9 °F 86% 30.12 in 10.0 mi East 6.9 mph - N/A   Mostly Cloudy
10:53 AM 62.1 °F 57.9 °F 86% 30.13 in 10.0 mi East 6.9 mph - 0.00 in Rain Light Rain
11:00 AM 62.1 °F 57.9 °F 86% 30.13 in 10.0 mi Calm Calm - 0.00 in   Overcast
11:53 AM 64.9 °F 57.9 °F 78% 30.12 in 10.0 mi NE 4.6 mph - 0.00 in   Overcast
12:53 PM 63.0 °F 57.9 °F 84% 30.09 in 10.0 mi NNE 6.9 mph - N/A   Overcast
1:53 PM 64.0 °F 59.0 °F 84% 30.06 in 8.0 mi SE 4.6 mph - 0.00 in Rain Light Rain
2:53 PM 62.1 °F 60.1 °F 93% 30.03 in 5.0 mi ESE 9.2 mph - 0.01 in Rain Light Rain
3:37 PM 62.1 °F 60.1 °F 93% 30.01 in 4.0 mi ESE 3.5 mph - 0.08 in Rain Light Rain
3:53 PM 62.1 °F 60.1 °F 93% 30.01 in 4.0 mi Calm Calm - 0.08 in Rain Light Rain
4:53 PM 62.1 °F 61.0 °F 96% 29.99 in 3.0 mi East 4.6 mph - 0.00 in Rain Light Rain
5:53 PM 62.1 °F 60.1 °F 93% 29.98 in 3.0 mi NNW 3.5 mph - 0.14 in Rain Light Rain
6:32 PM 62.1 °F 61.0 °F 96% 29.97 in 5.0 mi NNE 5.8 mph - 0.02 in Rain Rain
6:53 PM 62.1 °F 60.1 °F 93% 29.96 in 10.0 mi ENE 6.9 mph - 0.03 in   Overcast
7:44 PM 63.0 °F 61.0 °F 93% 29.96 in 10.0 mi ESE 5.8 mph - N/A   Overcast
7:53 PM 62.1 °F 61.0 °F 96% 29.96 in 10.0 mi Calm Calm - N/A   Overcast
8:53 PM 63.0 °F 60.1 °F 90% 29.95 in 10.0 mi SE 10.4 mph - N/A   Overcast
9:53 PM 63.0 °F 61.0 °F 93% 29.95 in 10.0 mi SE 9.2 mph - N/A   Overcast
10:53 PM 63.0 °F 61.0 °F 93% 29.93 in 10.0 mi SE 9.2 mph - N/A   Overcast
11:22 PM 64.0 °F 62.1 °F 93% 29.91 in 10.0 mi SSE 15.0 mph - N/A   Overcast
11:53 PM 64.0 °F 62.1 °F 93% 29.90 in 10.0 mi SE 17.3 mph 23.0 mph N/A   Overcast